Location: Beetenbrück
(52.8113°N, 9.5946°E)
Time: 22:23:17
(UTC+00:00)

Cosmos 1400 Rocket - Pass Details

Date: 14 April 2026
Orbit: 474 x 505 km, 81.1° (Epoch: 12 May)

Event Time Altitude Azimuth Distance (km) Brightness Sun altitude
Exits shadow 19:53:09 24° 126° (SE) 1,021 3.6 -13.4°
Maximum altitude 19:54:16 29° 93° (E) 898 3.4 -13.6°
Drops below altitude 10° 19:57:26 10° 32° (NNE) 1,656 5.3 -13.9°
Sets 19:59:42 0° 22° (NNE) 2,543 6.4 -14.2°
